Montgomery, NY

7:59 AM EST on February 25, 2017 (GMT -0500)
Orange County

Weather History for KMGJ - November, 2012

Change the Weather History Date:

Tuesday, November 27, 2012

  Actual Average (KSWF) Record (KSWF)
Temperature  
Mean Temperature 30 °F -  
Max Temperature 34 °F 45 °F 66 °F (1979)
Min Temperature 26 °F 28 °F 13 °F (1993)
Degree Days  
Heating Degree Days 35    
Moisture  
Dew Point 30 °F    
Average Humidity 89    
Maximum Humidity 96    
Minimum Humidity 75    
Precipitation  
Precipitation 0.18 in - - ()
Sea Level Pressure  
Sea Level Pressure 30.25 in    
Wind  
Wind Speed 1 mph (NNE)    
Max Wind Speed 5 mph    
Max Gust Speed -    
Visibility 4 miles    
Events Fog , Snow    
Averages and records for this station are not official NWS values.
T = Trace of Precipitation, MM = Missing Value Source: NWS Daily Summary

Daily Weather History Graph

Daily Weather History Graph

Search for Another Location

Airport or City:

Trip Planner

Search our weather history database for the weather conditions in past years. The results will help you decide how hot, cold, wet, or windy it might be!

Date:

Astronomy

Nov. 27, 2012 Rise Set
Actual Time 7:00 AM EST 4:29 PM EST
Civil Twilight 6:29 AM EST 4:59 PM EST
Nautical Twilight 5:55 AM EST 5:34 PM EST
Astronomical Twilight 5:22 AM EST 6:07 PM EST
Moon 3:59 PM EST (11/27) 6:02 AM EST (11/27)
Length of Visible Light 10h 30m
Length of Day
9h 28m
Waxing Gibbous, 99% of the Moon is Illuminated
Nov 27
Waxing Gibbous
Nov 28
Full
Dec 6
Last Quarter
Dec 13
New
Dec 20
First Quarter

Hourly Weather History & Observations

Time (EST) Temp. Windchill Dew Point Humidity Pressure Visibility Wind Dir Wind Speed Gust Speed Precip Events Conditions
12:54 AM 27.0 °F - 21.9 °F 81% 30.24 in 10.0 mi Calm Calm - N/A   Mostly Cloudy
1:54 AM 26.1 °F - 21.9 °F 84% 30.26 in 10.0 mi Calm Calm - N/A   Scattered Clouds
2:54 AM 28.9 °F - 21.9 °F 75% 30.26 in 10.0 mi Calm Calm - N/A   Overcast
3:54 AM 30.0 °F - 23.0 °F 75% 30.26 in 10.0 mi Calm Calm - N/A   Overcast
4:54 AM 30.0 °F 26.5 °F 24.1 °F 79% 30.27 in 10.0 mi SSW 3.5 mph - N/A   Overcast
5:54 AM 30.9 °F - 26.1 °F 82% 30.27 in 4.0 mi Calm Calm - 0.00 in Snow Light Snow
6:49 AM 30.2 °F - 26.6 °F 86% 30.27 in 3.0 mi Calm Calm - 0.00 in Snow Light Snow
6:52 AM 30.2 °F 26.7 °F 26.6 °F 86% 30.27 in 2.5 mi SW 3.5 mph - 0.00 in Snow Light Snow
6:54 AM 30.0 °F 26.5 °F 26.1 °F 85% 30.29 in 2.5 mi SW 3.5 mph - 0.00 in Snow Light Snow
7:17 AM 30.2 °F - 26.6 °F 86% 30.28 in 1.8 mi Calm Calm - 0.00 in Snow Light Snow
7:29 AM 30.2 °F - 26.6 °F 86% 30.28 in 1.5 mi Calm Calm - 0.01 in Snow Light Snow
7:54 AM 30.9 °F - 28.0 °F 89% 30.30 in 1.8 mi Calm Calm - 0.01 in Snow Light Snow
8:24 AM 30.2 °F - 28.4 °F 93% 30.28 in 1.0 mi Calm Calm - 0.00 in Snow Light Snow
8:54 AM 32.0 °F - 30.0 °F 92% 30.30 in 0.8 mi Calm Calm - 0.01 in Snow Light Snow
9:00 AM 32.0 °F - 28.4 °F 87% 30.28 in 1.0 mi Calm Calm - 0.01 in Snow Light Snow
9:09 AM 32.0 °F - 30.2 °F 93% 30.28 in 1.0 mi Calm Calm - 0.01 in Snow Light Snow
9:29 AM 32.0 °F - 30.2 °F 93% 30.28 in 0.8 mi Calm Calm - 0.01 in Snow Light Snow
9:37 AM 33.8 °F - 30.2 °F 87% 30.28 in 0.8 mi Calm Calm - 0.02 in Snow Light Snow
9:54 AM 33.1 °F - 30.0 °F 89% 30.30 in 0.5 mi Calm Calm - 0.02 in Fog , Snow Snow
9:57 AM 33.8 °F - 30.2 °F 87% 30.28 in 0.5 mi Calm Calm - 0.00 in Fog , Snow Snow
10:13 AM 33.8 °F - 30.2 °F 87% 30.28 in 0.8 mi Calm Calm - 0.01 in Snow Light Snow
10:54 AM 33.1 °F - 30.9 °F 92% 30.29 in 0.5 mi Calm Calm - 0.03 in Fog , Snow Snow
11:27 AM 33.8 °F 30.8 °F 30.2 °F 87% 30.27 in 0.5 mi North 3.5 mph - 0.01 in Fog , Snow Snow
11:54 AM 33.1 °F 30.0 °F 30.9 °F 92% 30.27 in 0.5 mi NNE 3.5 mph - 0.03 in Fog , Snow Snow
12:46 PM 33.8 °F 30.8 °F 30.2 °F 87% 30.25 in 0.5 mi North 3.5 mph - 0.03 in Fog , Snow Snow
12:54 PM 33.1 °F 30.0 °F 30.9 °F 92% 30.26 in 0.5 mi North 3.5 mph - 0.04 in Fog , Snow Snow
1:21 PM 33.8 °F - 32.0 °F 93% 30.24 in 0.5 mi Calm Calm - 0.01 in Fog , Snow Snow
1:54 PM 33.1 °F 28.7 °F 30.9 °F 92% 30.24 in 0.8 mi North 4.6 mph - 0.02 in Snow Light Snow
2:30 PM 33.8 °F 29.6 °F 32.0 °F 93% 30.22 in 1.0 mi North 4.6 mph - 0.01 in Snow Light Snow
2:39 PM 33.8 °F 29.6 °F 32.0 °F 93% 30.22 in 1.0 mi North 4.6 mph - 0.01 in Snow Light Snow
2:47 PM 33.8 °F 30.8 °F 32.0 °F 93% 30.22 in 1.2 mi North 3.5 mph - 0.01 in Snow Light Snow
2:54 PM 34.0 °F 31.0 °F 32.0 °F 92% 30.23 in 1.2 mi North 3.5 mph - 0.01 in Snow Light Snow
3:54 PM 34.0 °F - 32.0 °F 92% 30.23 in 2.0 mi Calm Calm - 0.01 in Snow Light Snow
4:43 PM 33.8 °F - 32.0 °F 93% 30.21 in 3.0 mi Calm Calm - 0.00 in Snow Light Snow
4:54 PM 33.1 °F - 32.0 °F 96% 30.23 in 3.0 mi Calm Calm - 0.00 in Snow Light Snow
5:45 PM 33.8 °F - 32.0 °F 93% 30.22 in 3.0 mi Calm Calm - 0.00 in   Overcast
5:54 PM 34.0 °F 29.8 °F 30.9 °F 89% 30.23 in 5.0 mi NNE 4.6 mph - 0.00 in   Overcast
6:13 PM 33.8 °F 30.8 °F 32.0 °F 93% 30.23 in 5.0 mi NNE 3.5 mph - N/A   Overcast
6:29 PM 33.8 °F 29.6 °F 32.0 °F 93% 30.22 in 6.0 mi NNE 4.6 mph - N/A   Overcast
6:54 PM 34.0 °F 29.8 °F 32.0 °F 92% 30.24 in 5.0 mi North 4.6 mph - N/A   Overcast
7:40 PM 33.8 °F 30.8 °F 32.0 °F 93% 30.23 in 5.0 mi North 3.5 mph - N/A   Overcast
7:54 PM 34.0 °F 31.0 °F 32.0 °F 92% 30.24 in 6.0 mi NNE 3.5 mph - N/A   Overcast
8:04 PM 33.8 °F 30.8 °F 32.0 °F 93% 30.23 in 7.0 mi NNE 3.5 mph - N/A   Overcast
8:16 PM 33.8 °F 29.6 °F 32.0 °F 93% 30.22 in 7.0 mi NNE 4.6 mph - N/A   Overcast
8:54 PM 34.0 °F 31.0 °F 32.0 °F 92% 30.25 in 7.0 mi North 3.5 mph - N/A   Overcast
9:09 PM 33.8 °F - 32.0 °F 93% 30.23 in 8.0 mi Calm Calm - N/A   Overcast
9:41 PM 33.8 °F 30.8 °F 30.2 °F 87% 30.24 in 8.0 mi NNE 3.5 mph - N/A   Overcast
9:54 PM 34.0 °F 31.0 °F 32.0 °F 92% 30.25 in 8.0 mi NNE 3.5 mph - N/A   Overcast
10:15 PM 33.8 °F 30.8 °F 30.2 °F 87% 30.22 in 8.0 mi NNE 3.5 mph - N/A   Overcast
10:54 PM 34.0 °F 31.0 °F 30.9 °F 89% 30.24 in 7.0 mi North 3.5 mph - N/A   Overcast
11:54 PM 34.0 °F 31.0 °F 30.9 °F 89% 30.23 in 8.0 mi North 3.5 mph - N/A   Overcast